Location: Centerville
(32.8776°N, 96.6203°W)
Time: 00:14:02
(UTC+00:00)

ATLAS 3B R/B - Pass Details

Date: 17 June 2021
Orbit: 1003 x 1191 km, 63.8° (Epoch: 21 July)

Event Time Altitude Azimuth Distance (km) Brightness Sun altitude
Exits shadow 04:26:16 22° 222° (SW) 2,047 4.0 -26.8°
Maximum altitude 04:30:40 69° 301° (WNW) 1,080 2.8 -27.2°
Drops below altitude 10° 04:37:18 10° 25° (NNE) 2,839 5.3 -27.9°
Sets 04:39:59 0° 28° (NNE) 3,817 6.0 -28.2°
